| time (UTC) | temp C | wind direction | speed KPH | gust KPH | rain 1hr cm | rain 24hr cm | rain mn cm | humidity % | barometer mb |
| 20260505064018 | 10 | 225 | 0.0 | 0.0 | 0.00 | 0.00 | 0.00 | 73 | 1004.3 |
| 20260505063943 | 10 | 225 | 0.0 | 0.0 | 0.00 | 0.00 | 0.00 | 73 | 1004.3 |
| 20260505063515 | 10 | 225 | 0.0 | 0.0 | 0.00 | 0.00 | 0.00 | 74 | 1004.0 |
| 20260505063441 | 10 | 225 | 0.0 | 0.0 | 0.00 | 0.00 | 0.00 | 74 | 1004.0 |
| 20260505063049 | 9 | 225 | 0.0 | 0.0 | 0.00 | 0.00 | 0.00 | 74 | 1003.9 |
| 20260505062938 | 9 | 225 | 0.0 | 0.0 | 0.00 | 0.00 | 0.00 | 74 | 1003.9 |
| 20260505062437 | 8 | 225 | 0.0 | 0.0 | 0.00 | 0.00 | 0.00 | 76 | 1003.9 |
| 20260505062010 | 8 | 225 | 0.0 | 0.0 | 0.00 | 0.00 | 0.00 | 77 | 1004.0 |
| 20260505061934 | 8 | 225 | 0.0 | 0.0 | 0.00 | 0.00 | 0.00 | 77 | 1004.0 |
| 20260505061504 | 7 | 225 | 0.0 | 0.0 | 0.00 | 0.00 | 0.00 | 77 | 1004.1 |
| 20260505061432 | 7 | 225 | 0.0 | 0.0 | 0.00 | 0.00 | 0.00 | 77 | 1004.1 |
| 20260505061015 | 7 | 225 | 0.0 | 3.2 | 0.00 | 0.00 | 0.00 | 77 | 1003.9 |
| 20260505060930 | 7 | 225 | 0.0 | 3.2 | 0.00 | 0.00 | 0.00 | 77 | 1003.9 |
| 20260505060428 | 6 | 225 | 1.6 | 1.6 | 0.00 | 0.00 | 0.00 | 78 | 1004.0 |
| 20260505060022 | 6 | 225 | 0.0 | 0.0 | 0.00 | 0.00 | 0.00 | 78 | 1004.0 |
| 20260505055925 | 6 | 225 | 0.0 | 0.0 | 0.00 | 0.00 | 0.00 | 78 | 1004.0 |
| 20260505054959 | 6 | 225 | 0.0 | 0.0 | 0.00 | 0.00 | 0.00 | 78 | 1003.9 |
| 20260505054921 | 6 | 225 | 0.0 | 0.0 | 0.00 | 0.00 | 0.00 | 78 | 1003.9 |
| 20260505054501 | 5 | 225 | 0.0 | 0.0 | 0.00 | 0.00 | 0.00 | 79 | 1003.8 |
| 20260505054420 | 5 | 225 | 0.0 | 0.0 | 0.00 | 0.00 | 0.00 | 79 | 1003.8 |
| 20260505053952 | 5 | 225 | 0.0 | 0.0 | 0.00 | 0.00 | 0.00 | 78 | 1003.7 |
| 20260505053917 | 5 | 225 | 0.0 | 0.0 | 0.00 | 0.00 | 0.00 | 78 | 1003.7 |
| 20260505053415 | 5 | 225 | 0.0 | 0.0 | 0.00 | 0.00 | 0.00 | 78 | 1003.9 |
| 20260505053003 | 5 | 225 | 0.0 | 0.0 | 0.00 | 0.00 | 0.00 | 77 | 1003.9 |
| 20260505052912 | 5 | 225 | 0.0 | 0.0 | 0.00 | 0.00 | 0.00 | 77 | 1003.9 |
| 20260505052448 | 5 | 225 | 0.0 | 0.0 | 0.00 | 0.00 | 0.00 | 78 | 1003.8 |
| 20260505052411 | 5 | 225 | 0.0 | 0.0 | 0.00 | 0.00 | 0.00 | 78 | 1003.8 |
| 20260505051908 | 5 | 225 | 0.0 | 0.0 | 0.00 | 0.00 | 0.00 | 78 | 1003.8 |
| 20260505051438 | 5 | 225 | 0.0 | 1.6 | 0.00 | 0.00 | 0.00 | 78 | 1003.7 |
| 20260505051406 | 5 | 225 | 0.0 | 1.6 | 0.00 | 0.00 | 0.00 | 78 | 1003.7 |
| 20260505050937 | 5 | 225 | 0.0 | 0.0 | 0.00 | 0.00 | 0.00 | 77 | 1003.7 |
| 20260505050904 | 5 | 225 | 0.0 | 0.0 | 0.00 | 0.00 | 0.00 | 77 | 1003.7 |
| 20260505050402 | 5 | 225 | 0.0 | 0.0 | 0.00 | 0.00 | 0.00 | 75 | 1003.7 |
| 20260505041335 | 6 | 225 | 0.0 | 0.0 | 0.00 | 0.00 | 0.00 | 76 | 1003.7 |
| 20260505040833 | 6 | 225 | 0.0 | 0.0 | 0.00 | 0.00 | 0.00 | 75 | 1004.0 |
| 20260505040405 | 6 | 225 | 0.0 | 0.0 | 0.00 | 0.00 | 0.00 | 75 | 1003.9 |
| 20260505040331 | 6 | 225 | 0.0 | 0.0 | 0.00 | 0.00 | 0.00 | 75 | 1003.9 |
| 20260505035828 | 6 | 225 | 0.0 | 0.0 | 0.00 | 0.00 | 0.00 | 74 | 1003.8 |
| 20260505035359 | 6 | 225 | 0.0 | 0.0 | 0.00 | 0.00 | 0.00 | 77 | 1003.9 |
| 20260505035327 | 6 | 225 | 0.0 | 0.0 | 0.00 | 0.00 | 0.00 | 77 | 1003.9 |
| 20260505034824 | 6 | 225 | 0.0 | 0.0 | 0.00 | 0.00 | 0.00 | 75 | 1004.1 |
| 20260505034400 | 6 | 225 | 0.0 | 0.0 | 0.00 | 0.00 | 0.00 | 74 | 1004.1 |
| 20260505034322 | 6 | 225 | 0.0 | 0.0 | 0.00 | 0.00 | 0.00 | 74 | 1004.1 |
| 20260505033820 | 6 | 225 | 0.0 | 1.6 | 0.00 | 0.00 | 0.00 | 74 | 1004.0 |
| 20260505032853 | 6 | 225 | 0.0 | 1.6 | 0.00 | 0.00 | 0.00 | 75 | 1003.9 |
| 20260505032815 | 6 | 225 | 0.0 | 1.6 | 0.00 | 0.00 | 0.00 | 75 | 1003.9 |
| 20260505032348 | 6 | 225 | 1.6 | 1.6 | 0.00 | 0.00 | 0.00 | 73 | 1003.9 |
| 20260505032313 | 6 | 225 | 1.6 | 1.6 | 0.00 | 0.00 | 0.00 | 73 | 1003.9 |
| 20260505031811 | 6 | 225 | 0.0 | 0.0 | 0.00 | 0.00 | 0.00 | 75 | 1004.0 |
| 20260505031344 | 6 | 225 | 0.0 | 0.0 | 0.00 | 0.00 | 0.00 | 75 | 1003.7 |
| 20260505031309 | 6 | 225 | 0.0 | 0.0 | 0.00 | 0.00 | 0.00 | 75 | 1003.7 |
| 20260505030806 | 6 | 225 | 0.0 | 1.6 | 0.00 | 0.00 | 0.00 | 75 | 1003.8 |
| 20260505030305 | 6 | 225 | 0.0 | 0.0 | 0.00 | 0.00 | 0.00 | 75 | 1004.0 |
| 20260505025927 | 6 | 236 | 0.0 | 0.0 | 0.00 | 0.00 | 0.00 | 75 | 1003.8 |
| 20260505025840 | 6 | 236 | 0.0 | 0.0 | 0.00 | 0.00 | 0.00 | 75 | 1003.8 |
| 20260505025337 | 6 | 225 | 0.0 | 1.6 | 0.00 | 0.00 | 0.00 | 73 | 1004.0 |
| 20260505024835 | 6 | 225 | 0.0 | 1.6 | 0.00 | 0.00 | 0.00 | 73 | 1003.8 |
| 20260505024333 | 7 | 225 | 0.0 | 0.0 | 0.00 | 0.00 | 0.00 | 73 | 1003.9 |
| 20260505023831 | 7 | 225 | 0.0 | 0.0 | 0.00 | 0.00 | 0.00 | 73 | 1003.8 |
| 20260505023328 | 7 | 225 | 0.0 | 0.0 | 0.00 | 0.00 | 0.00 | 73 | 1004.1 |
| 20260505022827 | 7 | 225 | 0.0 | 0.0 | 0.00 | 0.00 | 0.00 | 72 | 1004.1 |
| 20260505022324 | 7 | 225 | 0.0 | 0.0 | 0.00 | 0.00 | 0.00 | 72 | 1004.0 |
| 20260505021938 | 7 | 225 | 0.0 | 1.6 | 0.00 | 0.00 | 0.00 | 72 | 1004.2 |
| 20260505021822 | 7 | 225 | 0.0 | 1.6 | 0.00 | 0.00 | 0.00 | 72 | 1004.2 |
| 20260505021319 | 7 | 225 | 0.0 | 0.0 | 0.00 | 0.00 | 0.00 | 73 | 1004.0 |
| 20260505020818 | 7 | 225 | 0.0 | 1.6 | 0.00 | 0.00 | 0.00 | 74 | 1004.2 |
| 20260505020315 | 7 | 225 | 1.6 | 3.2 | 0.00 | 0.00 | 0.00 | 73 | 1004.1 |
| 20260505015858 | 7 | 225 | 0.0 | 0.0 | 0.00 | 0.00 | 0.00 | 75 | 1004.1 |
| 20260505015814 | 7 | 225 | 0.0 | 0.0 | 0.00 | 0.00 | 0.00 | 75 | 1004.1 |
| 20260505015407 | 7 | 225 | 0.0 | 0.0 | 0.00 | 0.00 | 0.00 | 74 | 1004.0 |
| 20260505015311 | 7 | 225 | 0.0 | 0.0 | 0.00 | 0.00 | 0.00 | 74 | 1004.0 |
| 20260505014809 | 7 | 180 | 3.2 | 4.8 | 0.00 | 0.00 | 0.00 | 71 | 1004.1 |
| 20260505014307 | 7 | 225 | 0.0 | 0.0 | 0.00 | 0.00 | 0.00 | 74 | 1004.0 |
| 20260505013847 | 7 | 225 | 0.0 | 1.6 | 0.00 | 0.00 | 0.00 | 74 | 1004.3 |
| 20260505013805 | 7 | 225 | 0.0 | 1.6 | 0.00 | 0.00 | 0.00 | 74 | 1004.3 |
| 20260505013356 | 7 | 225 | 0.0 | 0.0 | 0.00 | 0.00 | 0.00 | 72 | 1004.3 |
| 20260505013302 | 7 | 225 | 0.0 | 0.0 | 0.00 | 0.00 | 0.00 | 72 | 1004.3 |
| 20260505012905 | 7 | 225 | 0.0 | 1.6 | 0.00 | 0.00 | 0.00 | 71 | 1004.4 |
| 20260505012800 | 7 | 225 | 0.0 | 1.6 | 0.00 | 0.00 | 0.00 | 71 | 1004.4 |
| 20260505012258 | 7 | 225 | 0.0 | 0.0 | 0.00 | 0.00 | 0.00 | 71 | 1004.5 |
| 20260505011840 | 7 | 225 | 0.0 | 0.0 | 0.00 | 0.00 | 0.00 | 71 | 1004.5 |
| 20260505011756 | 7 | 225 | 0.0 | 0.0 | 0.00 | 0.00 | 0.00 | 71 | 1004.5 |
| 20260505011326 | 7 | 236 | 0.0 | 0.0 | 0.00 | 0.00 | 0.00 | 72 | 1004.5 |
| 20260505011253 | 7 | 236 | 0.0 | 0.0 | 0.00 | 0.00 | 0.00 | 72 | 1004.5 |
| 20260505010910 | 7 | 225 | 0.0 | 0.0 | 0.00 | 0.00 | 0.00 | 71 | 1004.6 |
| 20260505010752 | 7 | 225 | 0.0 | 0.0 | 0.00 | 0.00 | 0.00 | 71 | 1004.6 |
| 20260505010249 | 7 | 225 | 0.0 | 0.0 | 0.00 | 0.00 | 0.00 | 69 | 1004.5 |
| 20260505005747 | 7 | 225 | 0.0 | 0.0 | 0.00 | 0.00 | 0.00 | 71 | 1004.8 |
| 20260505005245 | 7 | 225 | 0.0 | 0.0 | 0.00 | 0.00 | 0.00 | 70 | 1004.7 |
| 20260505004857 | 7 | 225 | 0.0 | 0.0 | 0.00 | 0.00 | 0.00 | 72 | 1004.7 |
| 20260505004743 | 7 | 225 | 0.0 | 0.0 | 0.00 | 0.00 | 0.00 | 72 | 1004.7 |
| 20260505004240 | 7 | 225 | 0.0 | 0.0 | 0.00 | 0.00 | 0.00 | 69 | 1004.6 |
| 20260505003739 | 7 | 225 | 0.0 | 0.0 | 0.00 | 0.00 | 0.00 | 69 | 1004.9 |
| 20260505003236 | 7 | 225 | 0.0 | 1.6 | 0.00 | 0.00 | 0.00 | 69 | 1004.8 |
| 20260505002811 | 7 | 225 | 0.0 | 0.0 | 0.00 | 0.00 | 0.00 | 73 | 1004.9 |
| 20260505002734 | 7 | 225 | 0.0 | 0.0 | 0.00 | 0.00 | 0.00 | 73 | 1004.9 |
| 20260505002309 | 7 | 225 | 0.0 | 1.6 | 0.00 | 0.00 | 0.00 | 69 | 1005.0 |
| 20260505002232 | 7 | 225 | 0.0 | 1.6 | 0.00 | 0.00 | 0.00 | 69 | 1005.0 |
| 20260505001816 | 7 | 225 | 0.0 | 0.0 | 0.00 | 0.00 | 0.00 | 68 | 1005.0 |
| 20260505001730 | 7 | 225 | 0.0 | 0.0 | 0.00 | 0.00 | 0.00 | 68 | 1005.0 |
| 20260505001309 | 8 | 180 | 0.0 | 0.0 | 0.00 | 0.00 | 0.00 | 70 | 1004.9 |
| 20260505001227 | 8 | 180 | 0.0 | 0.0 | 0.00 | 0.00 | 0.00 | 70 | 1004.9 |
| 20260505000835 | 8 | 180 | 0.0 | 0.0 | 0.00 | 0.00 | 0.00 | 68 | 1004.9 |
| 20260505000726 | 8 | 180 | 0.0 | 0.0 | 0.00 | 0.00 | 0.00 | 68 | 1004.9 |
| 20260505000331 | 8 | 225 | 0.0 | 1.6 | 0.00 | 0.00 | 0.00 | 68 | 1004.9 |
| 20260505000223 | 8 | 225 | 0.0 | 1.6 | 0.00 | 0.00 | 0.00 | 68 | 1004.9 |
| 20260504235815 | 8 | 180 | 0.0 | 1.6 | 0.00 | 0.00 | 0.00 | 68 | 1005.1 |
| 20260504235721 | 8 | 180 | 0.0 | 1.6 | 0.00 | 0.00 | 0.00 | 68 | 1005.1 |
| 20260504235219 | 8 | 225 | 0.0 | 1.6 | 0.00 | 0.00 | 0.00 | 67 | 1005.3 |
| 20260504234800 | 8 | 225 | 1.6 | 3.2 | 0.00 | 0.00 | 0.00 | 66 | 1005.3 |
| 20260504234717 | 8 | 225 | 1.6 | 3.2 | 0.00 | 0.00 | 0.00 | 66 | 1005.3 |
| 20260504234214 | 8 | 225 | 0.0 | 1.6 | 0.00 | 0.00 | 0.00 | 68 | 1005.3 |
| 20260504233819 | 8 | 270 | 1.6 | 1.6 | 0.00 | 0.00 | 0.00 | 67 | 1005.2 |
| 20260504233713 | 8 | 270 | 1.6 | 1.6 | 0.00 | 0.00 | 0.00 | 67 | 1005.2 |
| 20260504233250 | 8 | 315 | 0.0 | 1.6 | 0.00 | 0.00 | 0.00 | 66 | 1005.4 |
| 20260504233210 | 8 | 315 | 0.0 | 1.6 | 0.00 | 0.00 | 0.00 | 66 | 1005.4 |
| 20260504232817 | 8 | 225 | 0.0 | 1.6 | 0.00 | 0.00 | 0.00 | 65 | 1005.3 |
| 20260504232708 | 8 | 225 | 0.0 | 1.6 | 0.00 | 0.00 | 0.00 | 65 | 1005.3 |
| 20260504232206 | 8 | 225 | 0.0 | 0.0 | 0.00 | 0.00 | 0.00 | 66 | 1005.2 |
| 20260504231803 | 8 | 45 | 0.0 | 1.6 | 0.00 | 0.00 | 0.00 | 65 | 1005.3 |
| 20260504231704 | 8 | 45 | 0.0 | 1.6 | 0.00 | 0.00 | 0.00 | 65 | 1005.3 |
| 20260504230759 | 8 | 180 | 0.0 | 1.6 | 0.00 | 0.00 | 0.00 | 67 | 1005.3 |
| 20260504230659 | 8 | 180 | 0.0 | 1.6 | 0.00 | 0.00 | 0.00 | 67 | 1005.3 |
| 20260504230157 | 8 | 180 | 0.0 | 1.6 | 0.00 | 0.00 | 0.00 | 67 | 1005.3 |
| 20260504225740 | 8 | 315 | 0.0 | 1.6 | 0.00 | 0.00 | 0.00 | 65 | 1005.2 |
| 20260504225655 | 8 | 315 | 0.0 | 1.6 | 0.00 | 0.00 | 0.00 | 65 | 1005.2 |
| 20260504225224 | 8 | 247 | 0.0 | 1.6 | 0.00 | 0.00 | 0.00 | 64 | 1005.1 |
| 20260504225152 | 8 | 247 | 0.0 | 1.6 | 0.00 | 0.00 | 0.00 | 64 | 1005.1 |
| 20260504224725 | 9 | 180 | 0.0 | 0.0 | 0.00 | 0.00 | 0.00 | 64 | 1005.2 |
| 20260504224651 | 9 | 180 | 0.0 | 0.0 | 0.00 | 0.00 | 0.00 | 64 | 1005.2 |
| 20260504224228 | 9 | 135 | 1.6 | 1.6 | 0.00 | 0.00 | 0.00 | 64 | 1005.2 |
| 20260504224148 | 9 | 135 | 1.6 | 1.6 | 0.00 | 0.00 | 0.00 | 64 | 1005.2 |
| 20260504223732 | 9 | 22 | 0.0 | 1.6 | 0.00 | 0.00 | 0.00 | 65 | 1005.1 |
| 20260504223646 | 9 | 22 | 0.0 | 1.6 | 0.00 | 0.00 | 0.00 | 65 | 1005.1 |
| 20260504223223 | 10 | 78 | 0.0 | 1.6 | 0.00 | 0.00 | 0.00 | 66 | 1005.1 |
| 20260504223144 | 10 | 78 | 0.0 | 1.6 | 0.00 | 0.00 | 0.00 | 66 | 1005.1 |
| 20260504222642 | 10 | 225 | 0.0 | 0.0 | 0.00 | 0.00 | 0.00 | 62 | 1005.1 |
| 20260504222139 | 10 | 180 | 0.0 | 1.6 | 0.00 | 0.00 | 0.00 | 61 | 1005.3 |
| 20260504221711 | 10 | 225 | 0.0 | 1.6 | 0.00 | 0.00 | 0.00 | 62 | 1005.1 |
| 20260504221638 | 10 | 225 | 0.0 | 1.6 | 0.00 | 0.00 | 0.00 | 62 | 1005.1 |
| 20260504221135 | 10 | 270 | 1.6 | 1.6 | 0.00 | 0.00 | 0.00 | 62 | 1005.1 |
| 20260504220713 | 10 | 270 | 1.6 | 1.6 | 0.00 | 0.00 | 0.00 | 63 | 1005.1 |
| 20260504220633 | 10 | 270 | 1.6 | 1.6 | 0.00 | 0.00 | 0.00 | 63 | 1005.1 |
| 20260504220131 | 10 | 270 | 0.0 | 3.2 | 0.00 | 0.00 | 0.00 | 63 | 1005.1 |
| 20260504215629 | 10 | 270 | 3.2 | 4.8 | 0.00 | 0.00 | 0.00 | 63 | 1005.1 |
| 20260504215126 | 10 | 270 | 3.2 | 4.8 | 0.00 | 0.00 | 0.00 | 62 | 1005.2 |
| 20260504214122 | 10 | 270 | 3.2 | 4.8 | 0.00 | 0.00 | 0.00 | 62 | 1005.1 |
| 20260504213712 | 10 | 303 | 1.6 | 4.8 | 0.00 | 0.00 | 0.00 | 61 | 1005.1 |
| 20260504213620 | 10 | 303 | 1.6 | 4.8 | 0.00 | 0.00 | 0.00 | 61 | 1005.1 |
| 20260504213118 | 10 | 315 | 1.6 | 4.8 | 0.00 | 0.00 | 0.00 | 61 | 1005.1 |
| 20260504212721 | 10 | 337 | 4.8 | 4.8 | 0.00 | 0.00 | 0.00 | 62 | 1005.1 |
| 20260504212616 | 10 | 337 | 4.8 | 4.8 | 0.00 | 0.00 | 0.00 | 62 | 1005.1 |
| 20260504212113 | 10 | 270 | 3.2 | 6.4 | 0.00 | 0.00 | 0.00 | 61 | 1005.0 |
| 20260504211612 | 10 | 292 | 3.2 | 3.2 | 0.00 | 0.00 | 0.00 | 60 | 1005.1 |
| 20260504211109 | 10 | 90 | 0.0 | 1.6 | 0.00 | 0.00 | 0.00 | 60 | 1005.0 |
| 20260504210105 | 11 | 202 | 0.0 | 3.2 | 0.00 | 0.00 | 0.00 | 59 | 1005.0 |
| 20260504205603 | 11 | 247 | 0.0 | 3.2 | 0.00 | 0.00 | 0.00 | 59 | 1005.1 |
| 20260504205144 | 11 | 0 | 0.0 | 4.8 | 0.00 | 0.00 | 0.00 | 59 | 1005.0 |
| 20260504205100 | 11 | 0 | 0.0 | 4.8 | 0.00 | 0.00 | 0.00 | 59 | 1005.0 |
| 20260504204641 | 11 | 0 | 1.6 | 4.8 | 0.00 | 0.00 | 0.00 | 59 | 1004.8 |
| 20260504204559 | 11 | 0 | 1.6 | 4.8 | 0.00 | 0.00 | 0.00 | 59 | 1004.8 |
| 20260504204056 | 11 | 270 | 4.8 | 6.4 | 0.00 | 0.00 | 0.00 | 58 | 1004.8 |
| 20260504203643 | 11 | 270 | 1.6 | 4.8 | 0.00 | 0.00 | 0.00 | 59 | 1004.7 |
| 20260504203554 | 11 | 270 | 1.6 | 4.8 | 0.00 | 0.00 | 0.00 | 59 | 1004.7 |
| 20260504203051 | 11 | 225 | 1.6 | 3.2 | 0.00 | 0.00 | 0.00 | 58 | 1004.6 |
| 20260504202550 | 11 | 247 | 0.0 | 1.6 | 0.00 | 0.00 | 0.00 | 58 | 1004.6 |
| 20260504202047 | 11 | 146 | 0.0 | 4.8 | 0.00 | 0.00 | 0.00 | 58 | 1004.5 |
| 20260504201545 | 11 | 225 | 0.0 | 4.8 | 0.00 | 0.00 | 0.00 | 58 | 1004.5 |
| 20260504201043 | 11 | 67 | 1.6 | 4.8 | 0.00 | 0.00 | 0.00 | 56 | 1004.4 |
| 20260504200641 | 11 | 45 | 1.6 | 4.8 | 0.00 | 0.00 | 0.00 | 57 | 1004.4 |
| 20260504200541 | 11 | 45 | 1.6 | 4.8 | 0.00 | 0.00 | 0.00 | 57 | 1004.4 |
| 20260504200038 | 12 | 45 | 1.6 | 6.4 | 0.00 | 0.00 | 0.00 | 54 | 1004.3 |
| 20260504195621 | 12 | 101 | 0.0 | 6.4 | 0.00 | 0.00 | 0.00 | 55 | 1004.3 |
| 20260504195537 | 12 | 101 | 0.0 | 6.4 | 0.00 | 0.00 | 0.00 | 55 | 1004.3 |
| 20260504195034 | 12 | 270 | 4.8 | 6.4 | 0.00 | 0.00 | 0.00 | 53 | 1004.2 |
| 20260504194532 | 12 | 0 | 4.8 | 8.0 | 0.00 | 0.00 | 0.00 | 53 | 1004.1 |
| 20260504194030 | 12 | 45 | 3.2 | 6.4 | 0.00 | 0.00 | 0.00 | 51 | 1003.9 |
| 20260504193619 | 12 | 337 | 12.9 | 16.1 | 0.00 | 0.00 | 0.00 | 51 | 1003.9 |
| 20260504193528 | 12 | 337 | 12.9 | 16.1 | 0.00 | 0.00 | 0.00 | 51 | 1003.9 |
| 20260504193025 | 12 | 247 | 4.8 | 9.7 | 0.00 | 0.00 | 0.00 | 49 | 1003.8 |
| 20260504192524 | 12 | 22 | 4.8 | 11.3 | 0.00 | 0.00 | 0.00 | 48 | 1003.8 |
| 20260504192021 | 13 | 45 | 3.2 | 11.3 | 0.00 | 0.00 | 0.00 | 45 | 1004.0 |
| 20260504191550 | 13 | 247 | 4.8 | 12.9 | 0.00 | 0.00 | 0.00 | 43 | 1003.9 |
| 20260504191519 | 13 | 247 | 4.8 | 12.9 | 0.00 | 0.00 | 0.00 | 43 | 1003.9 |
| 20260504191017 | 13 | 67 | 9.7 | 9.7 | 0.00 | 0.00 | 0.00 | 41 | 1003.7 |
| 20260504190554 | 13 | 270 | 1.6 | 6.4 | 0.00 | 0.00 | 0.00 | 41 | 1003.6 |
| 20260504190515 | 13 | 270 | 1.6 | 6.4 | 0.00 | 0.00 | 0.00 | 41 | 1003.6 |
| 20260504190047 | 14 | 45 | 3.2 | 14.5 | 0.00 | 0.00 | 0.00 | 43 | 1003.6 |
| 20260504190012 | 14 | 45 | 3.2 | 14.5 | 0.00 | 0.00 | 0.00 | 43 | 1003.6 |
| 20260504185511 | 14 | 101 | 3.2 | 9.7 | 0.00 | 0.00 | 0.00 | 41 | 1003.8 |
| 20260504185104 | 14 | 281 | 4.8 | 11.3 | 0.00 | 0.00 | 0.00 | 40 | 1003.6 |
| 20260504185008 | 14 | 281 | 4.8 | 11.3 | 0.00 | 0.00 | 0.00 | 40 | 1003.6 |
| 20260504184506 | 14 | 315 | 8.0 | 8.0 | 0.00 | 0.00 | 0.00 | 39 | 1003.5 |
| 20260504184004 | 15 | 56 | 11.3 | 11.3 | 0.00 | 0.00 | 0.00 | 39 | 1003.4 |
| 20260504183543 | 15 | 67 | 6.4 | 12.9 | 0.00 | 0.00 | 0.00 | 39 | 1003.4 |
| 20260504183502 | 15 | 67 | 6.4 | 12.9 | 0.00 | 0.00 | 0.00 | 39 | 1003.4 |
| 20260504182959 | 15 | 0 | 6.4 | 11.3 | 0.00 | 0.00 | 0.00 | 37 | 1003.4 |
| 20260504182458 | 15 | 22 | 11.3 | 16.1 | 0.00 | 0.00 | 0.00 | 36 | 1003.4 |
| 20260504182034 | 15 | 112 | 6.4 | 11.3 | 0.00 | 0.00 | 0.00 | 36 | 1003.4 |
| 20260504181955 | 15 | 112 | 6.4 | 11.3 | 0.00 | 0.00 | 0.00 | 36 | 1003.4 |
| 20260504181453 | 15 | 135 | 6.4 | 12.9 | 0.00 | 0.00 | 0.00 | 35 | 1003.2 |
| 20260504180950 | 15 | 11 | 3.2 | 14.5 | 0.00 | 0.00 | 0.00 | 35 | 1003.4 |
| 20260504180531 | 15 | 22 | 3.2 | 11.3 | 0.00 | 0.00 | 0.00 | 36 | 1003.2 |
| 20260504175946 | 15 | 90 | 6.4 | 12.9 | 0.00 | 0.00 | 0.00 | 33 | 1003.3 |
| 20260504175444 | 15 | 22 | 8.0 | 11.3 | 0.00 | 0.00 | 0.00 | 33 | 1003.5 |
| 20260504173938 | 16 | 112 | 8.0 | 12.9 | 0.00 | 0.00 | 0.00 | 32 | 1003.3 |
| 20260504173519 | 16 | 45 | 8.0 | 16.1 | 0.00 | 0.00 | 0.00 | 32 | 1003.3 |
| 20260504173436 | 16 | 45 | 8.0 | 16.1 | 0.00 | 0.00 | 0.00 | 32 | 1003.3 |
| 20260504172933 | 16 | 281 | 3.2 | 14.5 | 0.00 | 0.00 | 0.00 | 32 | 1003.3 |
| 20260504172432 | 16 | 270 | 9.7 | 14.5 | 0.00 | 0.00 | 0.00 | 33 | 1003.2 |
| 20260504171929 | 16 | 45 | 6.4 | 11.3 | 0.00 | 0.00 | 0.00 | 31 | 1003.3 |
| 20260504171427 | 16 | 90 | 4.8 | 12.9 | 0.00 | 0.00 | 0.00 | 33 | 1003.2 |
| 20260504170924 | 16 | 67 | 11.3 | 14.5 | 0.00 | 0.00 | 0.00 | 32 | 1003.2 |
| 20260504170423 | 17 | 135 | 9.7 | 14.5 | 0.00 | 0.00 | 0.00 | 30 | 1003.3 |
| 20260504160438 | 16 | 225 | 4.8 | 16.1 | 0.00 | 0.00 | 0.00 | 34 | 1002.8 |
| 20260504160357 | 16 | 225 | 4.8 | 16.1 | 0.00 | 0.00 | 0.00 | 34 | 1002.8 |
| 20260504150832 | 18 | 315 | 8.0 | 17.7 | 0.00 | 0.00 | 0.00 | 27 | 1003.0 |
| 20260504150331 | 17 | 292 | 11.3 | 11.3 | 0.00 | 0.00 | 0.00 | 30 | 1003.0 |
| 20260504141309 | 17 | 90 | 9.7 | 11.3 | 0.00 | 0.00 | 0.00 | 32 | 1003.0 |
| 20260504140806 | 17 | 337 | 4.8 | 11.3 | 0.00 | 0.00 | 0.00 | 32 | 1003.1 |
| 20260504130821 | 17 | 90 | 1.6 | 9.7 | 0.00 | 0.00 | 0.00 | 35 | 1003.2 |
| 20260504130740 | 17 | 90 | 1.6 | 9.7 | 0.00 | 0.00 | 0.00 | 35 | 1003.2 |
| 20260504130238 | 17 | 22 | 6.4 | 8.0 | 0.00 | 0.00 | 0.00 | 33 | 1003.3 |
| 20260504120212 | 16 | 315 | 1.6 | 8.0 | 0.00 | 0.00 | 0.00 | 39 | 1003.8 |
| 20260504110645 | 15 | 292 | 6.4 | 17.7 | 0.00 | 0.00 | 0.00 | 45 | 1004.0 |
| 20260504110143 | 15 | 90 | 1.6 | 6.4 | 0.00 | 0.00 | 0.00 | 45 | 1003.8 |
| 20260504100203 | 14 | 270 | 3.2 | 8.0 | 0.00 | 0.00 | 0.00 | 53 | 1004.0 |
| 20260504100117 | 14 | 270 | 3.2 | 8.0 | 0.00 | 0.00 | 0.00 | 53 | 1004.0 |
| 20260504081651 | 13 | 135 | 1.6 | 1.6 | 0.00 | 0.00 | 0.00 | 65 | 1003.6 |
| 20260504081620 | 13 | 135 | 1.6 | 1.6 | 0.00 | 0.00 | 0.00 | 65 | 1003.6 |
| 20260504081449 | 13 | 270 | 4.8 | 8.0 | 0.00 | 0.00 | 0.00 | 66 | 1003.5 |
| 20260504081413 | 13 | 270 | 4.8 | 8.0 | 0.00 | 0.00 | 0.00 | 66 | 1003.5 |
| 20260504080910 | 12 | 135 | 1.6 | 9.7 | 0.00 | 0.00 | 0.00 | 67 | 1003.5 |
| 20260504080409 | 13 | 292 | 6.4 | 14.5 | 0.00 | 0.00 | 0.00 | 63 | 1003.5 |